[[{"header":{"parameterUnit":"m.s-1","parameterCategory":1,"la1":30.2991,"la2":30.254,"lo1":-89.0895,"lo2":-89.0444,"dy":0.0017,"dx":0.0017,"nx":28,"ny":28,"refTime":"2025-07-15T21:00:00:Z","depth":0,"parameterNumber":2,"parameterNumberName":"U-component_of_WINDS"},"data":[0,0,0,0,0,0,0,0,0,0,0,0,0,0,0,0,0,0,0,0,0,0,0,0,0,0,0,0,0,0,0,0,0,0,0,0,0,0,0,0,0,0,0,0,0,0,0,0,0,0,0,0,0,0,0,0,0,0,-2.5194,-2.5194,0,-2.5135,-2.5135,-2.5134,-2.5113,-2.5113,-2.5114,-2.5114,-2.5045,-2.5043,-2.5041,0,0,0,0,0,0,0,0,0,0,0,0,0,-2.5282,-2.5281,-2.5195,-2.5194,-2.5193,-2.5135,-2.5135,-2.5134,-2.5113,-2.5113,-2.5114,-2.5114,-2.5046,-2.5043,-2.5041,0,0,0,0,0,0,0,0,0,0,0,0,0,-2.5236,-2.528,-2.5195,-2.5176,-2.5174,-2.5136,-2.5135,-2.5134,-2.5113,-2.5113,-2.5114,-2.5114,-2.5047,-2.5044,-2.5041,-2.5014,0,0,-2.5031,-2.503,0,0,0,0,0,0,0,0,-2.5238,-2.5232,-2.518,-2.5177,-2.5175,-2.5132,-2.514,-2.5093,-2.5113,-2.5136,-2.5114,-2.5114,-2.5073,-2.5068,-2.5056,-2.5011,-2.5008,-2.5031,-2.5029,-2.5028,-2.5027,0,0,0,0,0,0,0,-2.5242,-2.5235,-2.5171,-2.5179,-2.5176,-2.5168,-2.5162,-2.5131,-2.5103,-2.5134,-2.5132,-2.5126,-2.5072,-2.5059,-2.5054,-2.5007,-2.5031,-2.5028,-2.5026,-2.5025,-2.4936,-2.4936,0,0,0,0,0,0,-2.5249,-2.5238,-2.5173,-2.5169,-2.5208,-2.5166,-2.5159,-2.5145,-2.5103,-2.5097,-2.5126,-2.5125,-2.5064,-2.5058,-2.5052,-2.5017,-2.5028,-2.5025,-2.5023,-2.4937,-2.4936,-2.4936,0,0,0,0,0,0,-2.5251,-2.5243,-2.5175,-2.5203,-2.5194,-2.5165,-2.5149,-2.5144,-2.5131,-2.5097,-2.5091,-2.5118,-2.5064,-2.5056,-2.5024,-2.5015,-2.5023,-2.5021,-2.4937,-2.4937,-2.4936,-2.4949,0,0,0,0,0,0,-2.5254,-2.5244,-2.5236,-2.5203,-2.5192,-2.5151,-2.5148,-2.5143,-2.5127,-2.5125,-2.5089,-2.5083,-2.5064,-2.5029,-2.5021,-2.5011,-2.5018,-2.4938,-2.4937,-2.4936,-2.495,-2.4949,-2.4949,0,0,0,0,0,-2.5257,-2.524,-2.5235,-2.5228,-2.5181,-2.5151,-2.5144,-2.5125,-2.5126,-2.5116,-2.5094,-2.5084,-2.5017,-2.5026,-2.5017,-2.5005,-2.4939,-2.4937,-2.4936,-2.495,-2.4949,-2.4949,0,0,0,0,0,0,-2.527,-2.5235,-2.523,-2.5203,-2.518,-2.5147,-2.5134,-2.5125,-2.51,-2.5099,-2.5074,-2.5066,-2.5036,-2.5017,-2.5027,-2.4977,-2.4977,-2.4974,-2.499,-2.499,-2.4989,-2.4994,-2.5016,0,0,0,0,0,-2.527,-2.525,-2.522,-2.5199,-2.5188,-2.5163,-2.5149,-2.5137,-2.5111,-2.51,-2.5076,-2.505,-2.5023,-2.5005,-2.4978,-2.4947,-2.4938,-2.4935,-2.4934,-2.4934,-2.4932,-2.4913,-2.4911,-2.4932,-2.4932,-2.4932,0,0,-2.5269,-2.5248,-2.5236,-2.5201,-2.5182,-2.516,-2.5155,-2.5132,-2.5114,-2.5096,-2.5065,-2.5046,-2.5015,-2.4983,-2.4968,-2.4967,-2.4924,-2.4933,-2.4933,-2.493,-2.4911,-2.4909,-2.4908,-2.4931,-2.4931,-2.4931,0,0,-2.5256,-2.5239,-2.5219,-2.5201,-2.5173,-2.5157,-2.5152,-2.5121,-2.5109,-2.5078,-2.5064,-2.5041,-2.4995,-2.4974,-2.4956,-2.4936,-2.4925,-2.4928,-2.4925,-2.4907,-2.4905,-2.4904,-2.4895,-2.4893,-2.4925,-2.4925,-2.4925,0,-2.5258,-2.5226,-2.5209,-2.5188,-2.5172,-2.5157,-2.5136,-2.5118,-2.5081,-2.507,-2.507,-2.5013,-2.499,-2.4953,-2.4948,-2.4935,-2.4927,-2.4931,-2.4908,-2.4906,-2.4904,-2.4896,-2.4893,-2.4926,-2.4926,-2.4926,-2.4926,0,-2.5229,-2.5208,-2.5195,-2.5163,-2.5146,-2.5124,-2.5102,-2.5086,-2.5075,-2.5058,-2.5026,-2.4999,-2.4967,-2.4957,-2.4945,-2.4917,-2.4918,-2.4913,-2.4912,-2.4903,-2.4894,-2.4891,-2.4927,-2.4926,-2.4926,-2.4926,0,0,-2.5222,-2.5183,-2.5178,-2.5164,-2.5132,-2.5114,-2.5091,-2.5062,-2.5048,-2.5023,-2.5002,-2.4965,-2.496,-2.4941,-2.4926,-2.491,-2.4895,-2.4907,-2.4906,-2.4905,-2.4862,-2.4865,-2.4862,-2.4888,-2.4887,-2.4887,-2.4864,0,-2.5204,-2.5166,-2.515,-2.5117,-2.5096,-2.5082,-2.5062,-2.5039,-2.5022,-2.5,-2.498,-2.4954,-2.4951,-2.4939,-2.4923,-2.49,-2.4886,-2.4902,-2.4865,-2.4864,-2.4873,-2.4858,-2.4861,-2.4841,-2.4861,-2.4861,-2.486,0,-2.5179,-2.5157,-2.5123,-2.5095,-2.5085,-2.5068,-2.504,-2.5019,-2.4992,-2.4981,-2.496,-2.4947,-2.4919,-2.4922,-2.4883,-2.4894,-2.4878,-2.4865,-2.4863,-2.4858,-2.4861,-2.4851,-2.4835,-2.4831,-2.4855,-2.4855,-2.4856,0,-2.5176,-2.5138,-2.5113,-2.5101,-2.5067,-2.5055,-2.504,-2.5014,-2.4997,-2.4972,-2.4961,-2.4931,-2.4915,-2.4892,-2.487,-2.4873,-2.4832,-2.4833,-2.482,-2.4821,-2.4811,-2.4812,-2.4791,-2.4803,-2.4803,-2.4803,-2.4803,0,-2.5158,-2.5137,-2.5111,-2.5096,-2.5072,-2.5053,-2.5029,-2.5012,-2.499,-2.4969,-2.4954,-2.4934,-2.4907,-2.4882,-2.4865,-2.4835,-2.4827,-2.4816,-2.4811,-2.4817,-2.4818,-2.4805,-2.4805,-2.4802,-2.4802,-2.4802,-2.4802,0,-2.515,-2.5132,-2.5104,-2.5075,-2.5067,-2.5051,-2.5025,-2.5008,-2.4991,-2.4965,-2.4957,-2.493,-2.4901,-2.4877,-2.4838,-2.4826,-2.4794,-2.4789,-2.4804,-2.4802,-2.479,-2.4792,-2.4759,-2.4754,-2.477,-2.477,-2.477,0,-2.5139,-2.5124,-2.5094,-2.508,-2.5066,-2.5044,-2.5028,-2.5008,-2.4992,-2.496,-2.4947,-2.4917,-2.4893,-2.4847,-2.4821,-2.4791,-2.4785,-2.4776,-2.478,-2.4786,-2.4783,-2.4784,-2.4782,-2.4775,-2.4775,-2.4775,-2.4775,0,-2.5122,-2.5114,-2.5093,-2.5069,-2.505,-2.503,-2.5008,-2.4997,-2.4973,-2.4955,-2.4927,-2.4908,-2.4869,-2.484,-2.4807,-2.4788,-2.4776,-2.4774,-2.4769,-2.4774,-2.4783,-2.4777,-2.4802,-2.4774,-2.4774,-2.4774,-2.4774,-2.4774,-2.5111,-2.5097,-2.5074,-2.5051,-2.5033,-2.5014,-2.4996,-2.4979,-2.4956,-2.4925,-2.4914,-2.4885,-2.4857,-2.4813,-2.4794,-2.4769,-2.4767,-2.4761,-2.4759,-2.4758,-2.4758,-2.4789,-2.4763,-2.4763,-2.4763,-2.4763,-2.4763,0,-2.5092,-2.5077,-2.5056,-2.5028,-2.5009,-2.5003,-2.4979,-2.4963,-2.4939,-2.4915,-2.4892,-2.4859,-2.483,-2.4804,-2.4773,-2.4758,-2.4752,-2.475,-2.475,-2.4746,-2.4761,-2.4768,-2.4756,-2.4756,-2.4756,-2.4756,-2.4756,-2.4756,-2.508,-2.5055,-2.5045,-2.501,-2.4994,-2.4968,-2.4954,-2.4935,-2.4917,-2.4882,-2.4859,-2.4843,-2.4817,-2.4785,-2.4757,-2.475,-2.4739,-2.4739,-2.473,-2.4744,-2.4745,-2.4746,-2.4752,-2.4737,-2.4737,-2.4716,-2.4716,-2.4716]},{"header":{"parameterUnit":"m.s-1","parameterCategory":1,"la1":30.2991,"la2":30.254,"lo1":-89.0895,"lo2":-89.0444,"dy":0.0017,"dx":0.0017,"nx":28,"ny":28,"refTime":"2025-07-15T21:00:00:Z","depth":0,"parameterNumber":3,"parameterNumberName":"V-component_of_WINDS"},"data":[0,0,0,0,0,0,0,0,0,0,0,0,0,0,0,0,0,0,0,0,0,0,0,0,0,0,0,0,0,0,0,0,0,0,0,0,0,0,0,0,0,0,0,0,0,0,0,0,0,0,0,0,0,0,0,0,0,0,4.4486,4.4488,0,4.4729,4.4732,4.4735,4.4792,4.479,4.4788,4.4787,4.5032,4.504,4.5048,0,0,0,0,0,0,0,0,0,0,0,0,0,4.4066,4.4073,4.4486,4.4489,4.4492,4.4729,4.4732,4.4735,4.4792,4.479,4.4788,4.4786,4.5029,4.5039,4.5049,0,0,0,0,0,0,0,0,0,0,0,0,0,4.4273,4.4076,4.4485,4.4549,4.4557,4.4728,4.4732,4.4736,4.4792,4.479,4.4787,4.4785,4.5026,4.5038,4.505,4.5174,0,0,4.5087,4.5092,0,0,0,0,0,0,0,0,4.4261,4.4288,4.4536,4.4545,4.4554,4.4728,4.4674,4.4883,4.4793,4.4703,4.4787,4.4784,4.4932,4.4952,4.5003,4.5186,4.5196,4.5088,4.5095,4.5101,4.5104,0,0,0,0,0,0,0,4.4246,4.4278,4.4582,4.454,4.4551,4.4564,4.459,4.4714,4.4828,4.471,4.4715,4.4743,4.4937,4.4991,4.5009,4.52,4.5088,4.5098,4.5106,4.5111,4.5497,4.55,0,0,0,0,0,0,4.4222,4.4265,4.4574,4.4589,4.4398,4.4573,4.4603,4.4674,4.4827,4.4848,4.4745,4.4745,4.4972,4.4995,4.5018,4.5175,4.51,4.5112,4.5119,4.5494,4.5498,4.5501,0,0,0,0,0,0,4.4212,4.4249,4.4564,4.4429,4.447,4.4583,4.4663,4.468,4.4735,4.4854,4.4874,4.478,4.4971,4.5001,4.5136,4.5184,4.5117,4.5128,4.5491,4.5495,4.55,4.5488,0,0,0,0,0,0,4.42,4.4245,4.4294,4.443,4.4477,4.4679,4.4666,4.4687,4.4756,4.4758,4.4892,4.4911,4.4971,4.5117,4.5147,4.5199,4.5138,4.5487,4.5493,4.5498,4.5484,4.5491,4.5497,0,0,0,0,0,4.4185,4.428,4.4296,4.4333,4.4541,4.4681,4.4708,4.4776,4.476,4.481,4.4886,4.4907,4.5173,4.513,4.5165,4.5221,4.5484,4.5491,4.5498,4.5481,4.549,4.5497,0,0,0,0,0,0,4.4146,4.4299,4.4319,4.4461,4.4558,4.4691,4.4756,4.4783,4.4886,4.4883,4.4962,4.4992,4.5121,4.5184,4.5134,4.535,4.5328,4.5342,4.5304,4.5313,4.5319,4.5301,4.5148,0,0,0,0,0,4.4154,4.4256,4.4384,4.4497,4.4545,4.4642,4.4705,4.4749,4.4852,4.4893,4.4979,4.5078,4.5184,4.5252,4.5356,4.5493,4.5523,4.5549,4.5555,4.556,4.5572,4.565,4.5663,4.5524,4.5523,4.5523,0,0,4.4171,4.4267,4.4327,4.4491,4.4572,4.4675,4.4676,4.4785,4.4862,4.491,4.5043,4.5109,4.5224,4.536,4.5425,4.5417,4.5617,4.5569,4.5572,4.5581,4.5658,4.5671,4.5683,4.5528,4.5527,4.5527,0,0,4.4256,4.4339,4.4443,4.4524,4.4646,4.471,4.4735,4.4864,4.4911,4.5046,4.5084,4.5176,4.5356,4.5437,4.5501,4.5617,4.5641,4.5649,4.5682,4.5758,4.5769,4.5779,4.5821,4.5835,4.5659,4.5659,4.5659,0,4.4262,4.442,4.4492,4.46,4.4671,4.4721,4.4826,4.49,4.5049,4.5097,4.5086,4.5315,4.5396,4.5552,4.5581,4.5631,4.5662,4.5634,4.5762,4.5773,4.5783,4.5824,4.5839,4.566,4.566,4.566,4.566,0,4.4422,4.4531,4.46,4.4745,4.4823,4.4929,4.5016,4.5087,4.5124,4.5189,4.5325,4.5424,4.5549,4.5589,4.5626,4.5752,4.5743,4.5746,4.5726,4.5795,4.5835,4.5851,4.566,4.566,4.566,4.566,0,0,4.4488,4.4673,4.4697,4.4763,4.4902,4.4987,4.5095,4.5219,4.5278,4.5379,4.5472,4.5624,4.5628,4.5701,4.5747,4.5813,4.5899,4.5808,4.5812,4.5822,4.6044,4.6042,4.6059,4.5915,4.5919,4.5921,4.6035,0,4.4591,4.4787,4.4855,4.5016,4.5118,4.5167,4.526,4.5355,4.5418,4.5513,4.5582,4.569,4.5686,4.5731,4.5799,4.5874,4.5945,4.5867,4.6002,4.6005,4.5972,4.6079,4.6077,4.618,4.6051,4.6054,4.6055,0,4.4736,4.4841,4.5014,4.5141,4.5186,4.5269,4.5389,4.5479,4.5587,4.5628,4.571,4.5752,4.5866,4.5838,4.5996,4.5942,4.6001,4.6046,4.6052,4.6067,4.6035,4.6098,4.6214,4.6229,4.608,4.6078,4.6077,0,4.4769,4.4953,4.508,4.5136,4.5287,4.5344,4.5409,4.5515,4.5586,4.5689,4.5736,4.5851,4.5914,4.6001,4.6072,4.6046,4.6224,4.6202,4.6261,4.626,4.6297,4.6294,4.6424,4.6334,4.6333,4.6333,4.6333,0,4.4876,4.498,4.5097,4.5175,4.5292,4.5369,4.5483,4.5551,4.5645,4.5736,4.5784,4.5869,4.5957,4.6053,4.611,4.6232,4.626,4.6296,4.631,4.6293,4.6288,4.6333,4.6328,4.6337,4.6336,4.6336,4.6335,0,4.4932,4.5015,4.5157,4.5289,4.5324,4.5405,4.5517,4.5595,4.566,4.5776,4.5807,4.5909,4.6025,4.6105,4.6253,4.629,4.6423,4.6435,4.6387,4.6394,4.6449,4.6443,4.6613,4.6639,4.653,4.6531,4.6532,0,4.4996,4.5077,4.5218,4.5284,4.535,4.5454,4.5527,4.5605,4.5678,4.5808,4.587,4.5989,4.6089,4.6271,4.6358,4.6471,4.6487,4.6539,4.6504,4.6485,4.6489,4.6484,4.6492,4.6544,4.6545,4.6546,4.6546,0,4.51,4.5137,4.5241,4.5359,4.5445,4.5541,4.5638,4.5688,4.5783,4.5863,4.5983,4.606,4.6212,4.633,4.6452,4.6518,4.6548,4.6556,4.6576,4.656,4.6529,4.6547,4.6402,4.6552,4.6552,4.6551,4.6551,4.6551,4.5163,4.5237,4.5349,4.5463,4.5544,4.5633,4.5713,4.5789,4.5891,4.6022,4.6061,4.6185,4.6292,4.6459,4.6527,4.6625,4.6621,4.6649,4.6656,4.6662,4.6663,4.6512,4.6647,4.6647,4.6647,4.6647,4.6647,0,4.527,4.5344,4.5448,4.5583,4.5673,4.5694,4.5803,4.5876,4.5985,4.6082,4.618,4.6317,4.6432,4.6528,4.6647,4.6706,4.6723,4.6735,4.6732,4.6747,4.6659,4.6631,4.6719,4.6719,4.6719,4.6719,4.6719,4.6719,4.5337,4.5465,4.5515,4.5683,4.5757,4.588,4.594,4.6023,4.6101,4.6253,4.6349,4.6412,4.6509,4.6635,4.6741,4.6766,4.6807,4.6816,4.6844,4.6761,4.6753,4.6745,4.6718,4.6824,4.6824,4.6924,4.6925,4.6926]}]]